User: anonymous   Login
Location: Unspecified
(0.0000°N, 0.0000°E)
Time: 00:21:40
(UTC+00:00)
Language:

USA 238 DEB - Orbit

View from above orbital plane
View from above orbital plane
View from above satellite
View from above satellite

Ground track
Ground track

The orbit data is extracted from the following two-line orbital elements,

1 38773U 12048P   17086.14123823 0.00000000  00000-0  00000-0 0    02
2 38773  63.4356 149.9038 0018000  21.7995 338.2005 13.40730040    06
Epoch (UTC): 27 March 2017 03:23:22
Eccentricity: 0.0018000
inclination: 63.4356°
perigee height: 1093 km
apogee height: 1120 km
right ascension of ascending node: 149.9038°
argument of perigee: 21.7995°
revolutions per day: 13.40730040
mean anomaly at epoch: 338.2005°
orbit number at epoch: 0

The dashed part of the orbit path shows where the satellite is in the earth's shadow,  

DLR